Saranac Lake, NY

10:22 PM EDT on May 22, 2018 (GMT -0400)
Adirondack Regional

Weather History for KSLK - July, 2013

Change the Weather History Date:

Monday, July 1, 2013

  Actual Average Record
Temperature  
Mean Temperature 63 °F 63 °F  
Max Temperature 70 °F 76 °F 89 °F (1964)
Min Temperature 55 °F 51 °F 35 °F (1991)
Degree Days  
Heating Degree Days 3 3  
Month to date heating degree days 3  
Since 1 June heating degree days 187  
Since 1 July heating degree days 3  
Cooling Degree Days 0 2  
Month to date cooling degree days 0 2  
Year to date cooling degree days 46 31  
Since 1 June cooling degree days 36 28  
Growing Degree Days 12 (Base 50)    
Moisture  
Dew Point 57 °F    
Average Humidity 83    
Maximum Humidity 100    
Minimum Humidity 66    
Precipitation  
Precipitation 0.74 in 0.13 in 0.82 in (1968)
Month to date precipitation 0.74 0.13  
Year to date precipitation 21.02 16.33  
Sea Level Pressure  
Sea Level Pressure 30.05 in    
Wind  
Wind Speed 7 mph (ENE)    
Max Wind Speed 16 mph    
Max Gust Speed 22 mph    
Visibility 7 miles    
Events Rain    
T = Trace of Precipitation, MM = Missing Value Source: NWS Daily Summary

Daily Weather History Graph

Daily Weather History Graph

Search for Another Location

Airport or City:

Astronomy

Jul. 01, 2013 Rise Set
Actual Time 5:16 AM EDT 8:44 PM EDT
Civil Twilight 4:39 AM EDT 9:21 PM EDT
Nautical Twilight 3:51 AM EDT 10:09 PM EDT
Astronomical Twilight 2:50 AM EDT 11:10 PM EDT
Moon 12:54 AM EDT (7/1) 2:49 PM EDT (7/1)
Length of Visible Light 16h 41m
Length of Day
15h 28m
Waning Crescent, 35% of the Moon is Illuminated
Jul 1
Waning Crescent
Jul 8
New
Jul 15
First Quarter
Jul 22
Full
Jul 29
Last Quarter

Hourly Weather History & Observations

Time (EDT) Temp. Dew Point Humidity Pressure Visibility Wind Dir Wind Speed Gust Speed Precip Events Conditions
12:51 AM 63.0 °F 60.1 °F 90% 29.96 in 10.0 mi Calm Calm - N/A   Overcast
1:51 AM 63.0 °F 60.1 °F 90% 29.95 in 10.0 mi Calm Calm - N/A   Overcast
2:36 AM 60.8 °F 59.0 °F 94% 29.97 in 10.0 mi Calm Calm - N/A   Scattered Clouds
2:51 AM 60.1 °F 59.0 °F 96% 29.95 in 10.0 mi Calm Calm - N/A   Clear
3:51 AM 57.9 °F 57.9 °F 100% 29.96 in 10.0 mi Calm Calm - N/A   Clear
4:51 AM 57.9 °F 57.0 °F 97% 29.97 in 10.0 mi Calm Calm - N/A   Mostly Cloudy
5:51 AM 59.0 °F 57.9 °F 96% 29.99 in 10.0 mi Calm Calm - N/A   Mostly Cloudy
6:51 AM 61.0 °F 59.0 °F 93% 30.00 in 10.0 mi Calm Calm - N/A   Overcast
7:51 AM 63.0 °F 57.9 °F 84% 30.01 in 10.0 mi ENE 4.6 mph - N/A   Mostly Cloudy
8:39 AM 64.4 °F 57.2 °F 77% 30.04 in 10.0 mi ENE 10.4 mph - N/A   Mostly Cloudy
8:51 AM 66.0 °F 57.0 °F 73% 30.02 in 10.0 mi ENE 12.7 mph - N/A   Overcast
9:51 AM 66.0 °F 57.9 °F 75% 30.04 in 10.0 mi ENE 10.4 mph - N/A   Overcast
10:51 AM 68.0 °F 57.9 °F 70% 30.05 in 10.0 mi NE 10.4 mph - N/A   Overcast
11:12 AM 68.0 °F 57.2 °F 68% 30.06 in 10.0 mi ENE 10.4 mph 21.9 mph N/A   Overcast
11:36 AM 68.0 °F 57.2 °F 68% 30.06 in 10.0 mi ENE 13.8 mph 19.6 mph N/A   Overcast
11:51 AM 69.1 °F 57.9 °F 68% 30.05 in 10.0 mi ENE 10.4 mph - N/A   Overcast
12:51 PM 69.1 °F 57.9 °F 68% 30.04 in 10.0 mi ENE 12.7 mph 17.3 mph N/A   Overcast
1:26 PM 68.0 °F 57.2 °F 68% 30.06 in 10.0 mi NE 12.7 mph - N/A   Overcast
1:51 PM 68.0 °F 57.9 °F 70% 30.05 in 10.0 mi ENE 10.4 mph - N/A   Overcast
2:51 PM 66.9 °F 57.9 °F 73% 30.06 in 10.0 mi ENE 12.7 mph 17.3 mph N/A   Overcast
3:51 PM 66.9 °F 59.0 °F 76% 30.06 in 10.0 mi ENE 12.7 mph - N/A   Overcast
4:51 PM 64.9 °F 57.0 °F 75% 30.07 in 7.0 mi ENE 6.9 mph - 0.00 in Rain Light Rain
5:51 PM 62.1 °F 59.0 °F 90% 30.07 in 4.0 mi ENE 8.1 mph - 0.03 in Rain Light Rain
6:51 PM 61.0 °F 59.0 °F 93% 30.07 in 5.0 mi ENE 6.9 mph - 0.01 in Rain Light Rain
7:51 PM 60.1 °F 57.0 °F 90% 30.07 in 6.0 mi NE 8.1 mph - 0.03 in Rain Light Rain
8:51 PM 57.9 °F 55.9 °F 93% 30.09 in 4.0 mi NE 6.9 mph - 0.03 in Rain Rain
9:21 PM 57.2 °F 55.4 °F 94% 30.11 in 2.5 mi NNE 3.5 mph - 0.07 in Rain Heavy Rain
9:26 PM 57.2 °F 55.4 °F 94% 30.11 in 3.0 mi NE 4.6 mph - 0.07 in Rain Rain
9:51 PM 57.0 °F 55.0 °F 93% 30.11 in 3.0 mi NE 8.1 mph - 0.11 in Rain Rain
10:02 PM 57.2 °F 55.4 °F 94% 30.11 in 2.5 mi ENE 10.4 mph - 0.02 in Rain Rain
10:44 PM 55.4 °F 55.4 °F 100% 30.11 in 4.0 mi NE 8.1 mph - 0.19 in Rain Light Rain
10:51 PM 55.9 °F 55.0 °F 97% 30.10 in 3.0 mi NE 9.2 mph - 0.21 in Rain Rain
10:54 PM 55.4 °F 55.4 °F 100% 30.11 in 2.0 mi ENE 5.8 mph - 0.02 in Rain Heavy Rain
11:05 PM 55.4 °F 55.4 °F 100% 30.11 in 1.8 mi ENE 8.1 mph - 0.09 in Rain Heavy Rain
11:23 PM 55.4 °F 53.6 °F 94% 30.10 in 3.0 mi ENE 16.1 mph 21.9 mph 0.21 in Rain Rain
11:51 PM 55.9 °F 54.0 °F 93% 30.09 in 5.0 mi NE 11.5 mph - 0.25 in Rain Light Rain